When you browse on this site, cookies collect data to enhance your experience and personalize the content and advertising you see.
Visit our Privacy Policy to learn more. By continuing to use the site, you agree to this use of cookies and data.
  • In Lithuania
  • List of Countries
  • For 7 days
  • Water Temperature
  • Satellite Maps
  • Weather Map
  • Weather Widgets
  • user-avatar
    Login

    Hourly Weather Albany

    Today, 24 March, Sunday

    Time Temperature Precipitation Wind Pressure Humidity
    00:00 +14°C° 0 mm 6 mps 759 mmHg 79%
    01:00 +14°C° 0 mm 6 mps 759 mmHg 80%
    02:00 +15°C° 0 mm 6 mps 759 mmHg 80%
    03:00 +15°C° 0.1 mm 6 mps 759 mmHg 80%
    04:00 +15°C° 0.1 mm 6 mps 759 mmHg 80%
    05:00 +15°C° 0.1 mm 6 mps 759 mmHg 79%
    06:00 +15°C° 0.1 mm 6 mps 759 mmHg 77%
    07:00 +15°C° 0.1 mm 5 mps 760 mmHg 75%
    08:00 +15°C° 0 mm 5 mps 760 mmHg 71%
    09:00 +15°C° 0 mm 5 mps 760 mmHg 67%
    10:00 +16°C° 0 mm 5 mps 761 mmHg 64%
    11:00 +16°C° 0 mm 5 mps 761 mmHg 60%
    12:00 +16°C° 0 mm 5 mps 761 mmHg 60%
    13:00 +16°C° 0 mm 5 mps 761 mmHg 60%
    14:00 +17°C° 0 mm 5 mps 761 mmHg 60%
    15:00 +16°C° 0 mm 5 mps 761 mmHg 61%
    16:00 +16°C° 0 mm 5 mps 761 mmHg 63%
    17:00 +17°C° 0 mm 4 mps 761 mmHg 64%
    18:00 +15°C° 0 mm 4 mps 762 mmHg 66%
    19:00 +14°C° 0 mm 4 mps 762 mmHg 68%
    20:00 +14°C° 0 mm 3 mps 762 mmHg 70%
    21:00 +14°C° 0 mm 3 mps 763 mmHg 71%
    22:00 +14°C° 0 mm 3 mps 763 mmHg 72%
    23:00 +13°C° 0 mm 3 mps 763 mmHg 72%

    Tomorrow, 25 March, Monday

    Time Temperature Precipitation Wind Pressure Humidity
    00:00 +13°C° 0 mm 3 mps 763 mmHg 74%
    01:00 +14°C° 0 mm 2 mps 763 mmHg 75%
    02:00 +14°C° 0 mm 2 mps 763 mmHg 76%
    03:00 +13°C° 0 mm 2 mps 763 mmHg 77%
    04:00 +13°C° 0 mm 2 mps 763 mmHg 78%
    05:00 +13°C° 0 mm 2 mps 763 mmHg 78%
    06:00 +13°C° 0 mm 3 mps 764 mmHg 75%
    07:00 +14°C° 0 mm 3 mps 764 mmHg 72%
    08:00 +16°C° 0 mm 3 mps 764 mmHg 68%
    09:00 +17°C° 0 mm 4 mps 764 mmHg 65%
    10:00 +18°C° 0 mm 4 mps 764 mmHg 61%
    11:00 +19°C° 0 mm 4 mps 765 mmHg 57%
    12:00 +19°C° 0 mm 4 mps 764 mmHg 55%
    13:00 +20°C° 0 mm 4 mps 764 mmHg 54%
    14:00 +21°C° 0 mm 5 mps 763 mmHg 52%
    15:00 +20°C° 0 mm 5 mps 763 mmHg 55%
    16:00 +19°C° 0 mm 5 mps 763 mmHg 58%
    17:00 +19°C° 0 mm 5 mps 763 mmHg 61%
    18:00 +17°C° 0 mm 5 mps 764 mmHg 66%
    19:00 +16°C° 0 mm 5 mps 764 mmHg 72%
    20:00 +15°C° 0 mm 5 mps 764 mmHg 77%
    21:00 +15°C° 0 mm 5 mps 764 mmHg 78%
    22:00 +14°C° 0 mm 5 mps 764 mmHg 79%
    23:00 +14°C° 0 mm 5 mps 764 mmHg 81%

    Day after tomorrow, 26 March, Tuesday

    Time Temperature Precipitation Wind Pressure Humidity
    00:00 +14°C° 0 mm 5 mps 764 mmHg 83%
    01:00 +14°C° 0 mm 5 mps 764 mmHg 84%
    02:00 +14°C° 0 mm 5 mps 764 mmHg 86%
    03:00 +14°C° 0 mm 5 mps 763 mmHg 87%
    04:00 +14°C° 0 mm 5 mps 763 mmHg 87%
    05:00 +14°C° 0 mm 5 mps 763 mmHg 88%
    06:00 +15°C° 0 mm 5 mps 763 mmHg 82%
    07:00 +15°C° 0 mm 5 mps 763 mmHg 76%
    08:00 +16°C° 0 mm 5 mps 763 mmHg 71%
    09:00 +20°C° 0 mm 5 mps 763 mmHg 62%
    10:00 +22°C° 0 mm 4 mps 763 mmHg 53%
    11:00 +25°C° 0 mm 4 mps 763 mmHg 43%
    12:00 +26°C° 0 mm 4 mps 762 mmHg 41%
    13:00 +28°C° 0 mm 4 mps 761 mmHg 38%
    14:00 +29°C° 0 mm 4 mps 761 mmHg 35%
    15:00 +28°C° 0 mm 4 mps 760 mmHg 38%
    16:00 +27°C° 0 mm 4 mps 760 mmHg 41%
    17:00 +26°C° 0 mm 4 mps 760 mmHg 45%
    18:00 +23°C° 0 mm 4 mps 760 mmHg 51%
    19:00 +22°C° 0 mm 5 mps 760 mmHg 57%
    20:00 +20°C° 0 mm 5 mps 760 mmHg 63%
    21:00 +20°C° 0 mm 4 mps 760 mmHg 66%
    22:00 +19°C° 0 mm 4 mps 760 mmHg 69%
    23:00 +19°C° 0 mm 4 mps 760 mmHg 71%

    27 March, Wednesday

    Time Temperature Precipitation Wind Pressure Humidity
    00:00 +18°C° 0 mm 4 mps 760 mmHg 70%
    01:00 +18°C° 0 mm 3 mps 759 mmHg 69%
    02:00 +18°C° 0 mm 2 mps 759 mmHg 68%
    03:00 +18°C° 0 mm 2 mps 759 mmHg 63%
    04:00 +18°C° 0 mm 2 mps 758 mmHg 58%
    05:00 +18°C° 0 mm 3 mps 758 mmHg 54%
    06:00 +19°C° 0 mm 3 mps 758 mmHg 52%
    07:00 +20°C° 0 mm 3 mps 759 mmHg 50%
    08:00 +21°C° 0 mm 3 mps 759 mmHg 48%
    09:00 +22°C° 0 mm 3 mps 759 mmHg 51%
    10:00 +23°C° 0 mm 4 mps 759 mmHg 54%
    11:00 +25°C° 0 mm 4 mps 759 mmHg 57%
    12:00 +25°C° 0 mm 5 mps 759 mmHg 61%
    13:00 +23°C° 0 mm 5 mps 759 mmHg 65%
    14:00 +22°C° 0 mm 6 mps 759 mmHg 70%
    15:00 +21°C° 0 mm 5 mps 759 mmHg 72%
    16:00 +20°C° 0 mm 5 mps 759 mmHg 74%
    17:00 +17°C° 0 mm 5 mps 760 mmHg 76%
    18:00 +17°C° 0 mm 5 mps 760 mmHg 77%
    19:00 +16°C° 0 mm 5 mps 761 mmHg 79%
    20:00 +16°C° 0 mm 5 mps 761 mmHg 80%
    21:00 +17°C° 0 mm 4 mps 762 mmHg 80%
    22:00 +17°C° 0 mm 4 mps 762 mmHg 80%
    23:00 +17°C° 0 mm 3 mps 762 mmHg 80%

    28 March, Thursday

    Time Temperature Precipitation Wind Pressure Humidity
    00:00 +17°C° 0.1 mm 4 mps 762 mmHg 80%
    01:00 +17°C° 0.1 mm 4 mps 762 mmHg 81%
    02:00 +17°C° 0.1 mm 4 mps 762 mmHg 81%
    03:00 +17°C° 0.1 mm 4 mps 762 mmHg 81%
    04:00 +17°C° 0.1 mm 4 mps 762 mmHg 81%
    05:00 +15°C° 0.1 mm 4 mps 762 mmHg 81%
    06:00 +15°C° 0 mm 4 mps 762 mmHg 78%
    07:00 +15°C° 0 mm 4 mps 763 mmHg 75%
    08:00 +17°C° 0 mm 4 mps 763 mmHg 72%
    09:00 +17°C° 0 mm 4 mps 763 mmHg 71%
    10:00 +17°C° 0 mm 4 mps 764 mmHg 69%
    11:00 +17°C° 0 mm 4 mps 764 mmHg 67%
    12:00 +17°C° 0 mm 4 mps 763 mmHg 67%
    13:00 +17°C° 0 mm 4 mps 763 mmHg 66%
    14:00 +17°C° 0 mm 4 mps 763 mmHg 65%
    15:00 +15°C° 0 mm 4 mps 763 mmHg 67%
    16:00 +15°C° 0 mm 4 mps 763 mmHg 68%
    17:00 +15°C° 0 mm 5 mps 764 mmHg 70%
    18:00 +14°C° 0 mm 5 mps 764 mmHg 71%
    19:00 +14°C° 0 mm 4 mps 765 mmHg 72%
    20:00 +13°C° 0 mm 4 mps 766 mmHg 73%
    21:00 +13°C° 0 mm 4 mps 766 mmHg 74%
    22:00 +13°C° 0 mm 4 mps 766 mmHg 75%
    23:00 +13°C° 0 mm 4 mps 765 mmHg 76%

    29 March, Friday

    Time Temperature Precipitation Wind Pressure Humidity
    00:00 +13°C° 0 mm 4 mps 765 mmHg 76%
    01:00 +13°C° 0 mm 4 mps 766 mmHg 76%
    02:00 +13°C° 0 mm 4 mps 766 mmHg 76%
    03:00 +13°C° 0 mm 4 mps 766 mmHg 76%
    04:00 +13°C° 0 mm 4 mps 766 mmHg 76%
    05:00 +13°C° 0 mm 4 mps 766 mmHg 76%
    06:00 +13°C° 0 mm 4 mps 766 mmHg 74%
    07:00 +14°C° 0 mm 5 mps 766 mmHg 71%
    08:00 +14°C° 0 mm 5 mps 766 mmHg 68%
    09:00 +15°C° 0 mm 5 mps 766 mmHg 66%
    10:00 +16°C° 0 mm 5 mps 766 mmHg 63%
    11:00 +17°C° 0 mm 5 mps 766 mmHg 60%
    12:00 +17°C° 0 mm 5 mps 766 mmHg 59%
    13:00 +19°C° 0 mm 5 mps 766 mmHg 58%
    14:00 +19°C° 0 mm 6 mps 765 mmHg 57%
    15:00 +19°C° 0 mm 6 mps 765 mmHg 60%
    16:00 +17°C° 0 mm 6 mps 765 mmHg 63%
    17:00 +17°C° 0 mm 6 mps 765 mmHg 65%
    18:00 +16°C° 0 mm 6 mps 765 mmHg 70%
    19:00 +15°C° 0 mm 6 mps 766 mmHg 74%
    20:00 +14°C° 0 mm 6 mps 766 mmHg 78%
    21:00 +14°C° 0 mm 6 mps 766 mmHg 79%
    22:00 +14°C° 0 mm 6 mps 766 mmHg 79%
    23:00 +14°C° 0 mm 6 mps 766 mmHg 80%
    Show more